DateTimeUTC,F1_A11,F1_S11,BsB_S11,BsG_S11,BsR_S11,BbsB_S11,BbsG_S11,BbsR_S11,BaB_A11,BaG_A11,BaR_A11,Tu_S11,T_S11,Uu_S11,U_S11,P_S11,T1_A11
2021-07-03T09:00:00Z,00000200,20000000,,,,,,,0000.39,-000.31,0000.21,18.4,25.0,03.3,02.2,0673.6,31.1
2021-07-03T09:01:00Z,00000200,20000000,,,,,,,-000.32,-000.39,-000.03,18.4,25.1,03.3,02.2,0673.6,31.2
2021-07-03T09:02:00Z,00000200,20000000,,,,,,,0000.16,0000.46,-000.32,18.5,25.1,03.3,02.2,0673.6,31.1
2021-07-03T09:03:00Z,00000200,60000000,,,,,,,0000.16,-000.01,0000.27,18.5,25.1,03.3,02.2,0673.6,31.1
2021-07-03T09:04:00Z,00000200,40000000,0000.57,0000.01,0000.07,-000.14,0000.17,-000.03,0000.10,0000.07,0000.12,18.5,24.9,03.5,02.4,0674.5,31.1
2021-07-03T09:05:00Z,00000200,00000000,0000.49,-000.11,-000.12,-000.14,-000.15,0000.08,-000.08,0000.02,-000.37,18.5,24.9,03.5,02.4,0674.6,31.1
2021-07-03T09:06:00Z,00000200,00000000,0000.65,0000.05,0000.49,0000.18,0000.11,0000.37,0000.30,-000.04,0000.44,18.5,24.8,03.6,02.4,0674.6,31.1
2021-07-03T09:07:00Z,00000200,00000000,0000.38,0000.16,0000.22,0000.56,-000.28,0000.27,-000.03,0000.21,0000.10,18.5,24.8,03.6,02.4,0674.6,31.1
2021-07-03T09:08:00Z,00000200,00000000,0000.19,0000.12,0000.18,0000.04,0000.27,0000.14,0000.06,0000.18,0000.10,18.5,24.8,03.6,02.4,0674.6,31.1
2021-07-03T09:09:00Z,00000200,00000000,0000.38,0000.03,0000.15,-000.24,-000.11,0000.06,0000.52,0000.20,0000.17,18.5,24.8,03.6,02.5,0674.6,31.1
2021-07-03T09:10:00Z,00000200,00000000,0000.05,0000.36,0000.06,-000.22,-000.01,0000.38,-000.06,0000.16,0000.10,18.6,24.8,03.7,02.5,0674.6,31.1
2021-07-03T09:11:00Z,00000200,00000000,0000.97,0000.30,0000.22,0000.07,-000.04,0000.07,0000.12,0000.39,0000.15,18.7,24.9,03.7,02.5,0674.6,31.1
2021-07-03T09:12:00Z,00000200,00000000,-000.16,0000.17,-000.11,-000.11,0000.04,-000.07,0000.21,0000.03,-000.07,18.7,24.9,03.6,02.5,0674.6,31.2
2021-07-03T09:13:00Z,00000200,00000000,0000.54,0000.45,0000.38,0000.36,-000.12,0000.11,-000.16,-000.41,-000.04,18.7,24.9,03.8,02.6,0674.5,31.1
2021-07-03T09:14:00Z,00000200,00000000,0000.61,0000.27,0000.11,-000.24,-000.13,-000.11,-000.02,0000.32,-000.00,18.7,24.9,03.8,02.6,0674.6,31.1
2021-07-03T09:15:00Z,00000200,00000000,-000.24,0000.28,0000.41,0000.33,-000.17,0000.24,0000.18,0000.18,0000.04,18.7,24.9,03.8,02.6,0674.6,31.1
2021-07-03T09:16:00Z,00000200,00000000,0000.92,0000.25,0000.56,0000.42,0000.10,0000.25,0000.02,-000.14,0000.17,18.6,24.9,03.9,02.6,0674.5,31.1
2021-07-03T09:17:00Z,00000200,00000000,0000.56,0000.20,0000.03,0000.07,-000.25,0000.15,0000.21,0000.39,-000.05,18.6,24.9,03.8,02.6,0674.5,31.1
2021-07-03T09:18:00Z,00000200,00000000,0000.32,0000.17,0000.22,0000.17,-000.15,0000.22,0000.16,-000.27,0000.09,18.5,24.8,04.0,02.7,0674.5,31.1
2021-07-03T09:19:00Z,00000200,00000000,0000.54,-000.06,0000.36,0000.38,-000.04,-000.23,-000.11,-000.08,0000.26,18.5,24.8,04.0,02.7,0674.5,31.1
2021-07-03T09:20:00Z,00000200,00000000,0000.02,0000.16,0000.15,0000.31,0000.23,0000.09,0000.42,0000.35,0000.13,18.4,24.8,03.9,02.6,0674.5,31.0
2021-07-03T09:21:00Z,00000200,00000000,-000.09,0000.28,0000.22,0000.09,0000.07,0000.06,0000.04,-000.12,0000.02,18.4,24.7,04.0,02.7,0674.5,31.0
2021-07-03T09:22:00Z,00000200,00000000,0000.37,0000.09,0000.18,0000.48,-000.23,0000.16,0000.21,0000.38,0000.14,18.4,24.7,04.0,02.7,0674.4,31.0
2021-07-03T09:23:00Z,00000200,00000000,0000.00,0000.39,0000.07,-000.13,-000.03,-000.09,0000.30,0000.30,0000.04,18.4,24.7,04.1,02.8,0674.4,31.0
2021-07-03T09:24:00Z,00000200,00000000,0000.22,0000.39,0000.34,0000.24,0000.04,0000.17,0000.32,0000.14,0000.29,18.5,24.8,04.0,02.8,0674.5,31.1
2021-07-03T09:25:00Z,00000200,00000000,0001.14,0000.35,0000.04,-000.06,-000.01,0000.09,-000.47,0000.04,-000.22,18.5,24.8,04.1,02.8,0674.5,31.1
2021-07-03T09:26:00Z,00000200,00000000,0000.30,0000.00,0000.03,-000.23,-000.16,-000.18,0000.07,-000.25,0000.08,18.6,24.8,04.1,02.8,0674.4,31.1
2021-07-03T09:27:00Z,00000200,00000000,0001.06,0000.11,0000.12,-000.07,0000.12,0000.13,0000.54,0000.44,0000.06,18.6,24.8,04.2,02.9,0674.4,31.1
2021-07-03T09:28:00Z,00000200,00000000,-000.03,0000.30,0000.10,-000.00,0000.31,0000.07,-000.45,-000.09,0000.19,18.7,24.9,04.2,02.9,0674.4,31.1
2021-07-03T09:29:00Z,00000200,00000000,0000.28,0000.37,-000.11,0000.21,-000.14,-000.25,0000.57,0000.16,-000.01,18.6,24.8,04.1,02.8,0674.4,31.1
2021-07-03T09:30:00Z,00000200,00000000,0001.19,0000.39,0000.52,-000.33,-000.01,0000.05,-000.60,-000.18,-000.10,18.6,24.8,04.2,02.9,0674.4,31.1
2021-07-03T09:31:00Z,00000200,00000000,0000.00,0000.03,0000.15,0000.09,-000.34,0000.23,0000.44,0000.20,-000.03,18.6,24.8,04.1,02.8,0674.4,31.1
2021-07-03T09:32:00Z,00000200,00000000,0000.27,0000.23,0000.21,0000.15,-000.22,0000.06,0000.31,0000.30,0000.30,18.5,24.8,04.2,02.9,0674.4,31.1
2021-07-03T09:33:00Z,00000200,00000000,0000.27,0000.21,-000.23,-000.18,-000.07,-000.04,-000.30,-000.17,0000.29,18.5,24.8,04.3,02.9,0674.4,31.0
2021-07-03T09:34:00Z,00000200,00000000,0001.00,0000.04,0000.27,0000.19,-000.01,0000.15,0000.32,0000.11,-000.02,18.4,24.7,04.2,02.9,0674.3,31.0
2021-07-03T09:35:00Z,00000200,00000000,0000.87,0000.26,0000.27,-000.14,0000.22,0000.00,0000.31,-000.11,-000.18,18.4,24.7,04.4,03.0,0674.3,31.0
2021-07-03T09:36:00Z,00000200,00000000,0000.45,0000.01,-000.27,0000.10,0000.02,0000.09,0000.06,0000.39,0000.14,18.3,24.7,04.4,03.0,0674.3,31.0
2021-07-03T09:37:00Z,00000200,00000000,0000.38,-000.02,0000.26,-000.31,0000.12,0000.18,-000.06,-000.37,-000.09,18.3,24.7,04.3,02.9,0674.2,31.0
2021-07-03T09:38:00Z,00000200,00000000,0000.54,0000.12,0000.06,0000.31,0000.11,0000.39,0000.21,0000.37,0000.02,18.3,24.6,04.4,03.0,0674.3,31.0
2021-07-03T09:39:00Z,00000200,00000000,0000.09,0000.28,0000.01,-000.19,-000.14,0000.09,0000.11,-000.09,0000.39,18.4,24.6,04.4,03.0,0674.3,31.1
2021-07-03T09:40:00Z,00000200,00000000,0000.66,0000.56,-000.07,0000.56,0000.00,-000.00,0000.18,0000.64,0000.04,18.5,24.7,04.4,03.0,0674.2,31.1
2021-07-03T09:41:00Z,00000200,00000000,0000.58,-000.08,0000.14,0000.22,-000.14,0000.14,0000.28,0000.23,-000.01,18.6,24.7,04.5,03.1,0674.3,31.1
2021-07-03T09:42:00Z,00000200,00000000,0000.42,0000.06,-000.18,-000.09,0000.14,-000.14,-000.11,-000.06,0000.53,18.6,24.8,04.4,03.1,0674.4,31.1
2021-07-03T09:43:00Z,00000200,00000000,0000.23,0000.38,0000.00,-000.39,-000.16,0000.05,0000.15,0000.08,0000.09,18.7,24.8,04.4,03.0,0674.3,31.1
2021-07-03T09:44:00Z,00000200,00000000,0001.15,0000.37,0000.18,-000.00,-000.38,0000.17,0000.05,-000.03,-000.16,18.8,24.8,04.5,03.1,0674.4,31.1
2021-07-03T09:45:00Z,00000200,00000000,0000.34,0000.29,0000.40,0000.28,-000.02,-000.18,0000.23,0000.17,-000.03,18.8,24.9,04.4,03.1,0674.4,31.1
2021-07-03T09:46:00Z,00000200,00000000,0000.36,0000.24,0000.01,-000.50,0000.04,0000.32,0000.12,0000.03,0000.18,18.7,24.8,04.5,03.1,0674.4,31.1
2021-07-03T09:47:00Z,00000200,00000000,0000.81,0000.27,0000.27,-000.43,0000.19,0000.13,0000.03,-000.15,-000.00,18.7,24.8,04.5,03.1,0674.4,31.1
2021-07-03T09:48:00Z,00000200,00000000,0000.53,0000.05,0000.30,-000.12,-000.07,-000.07,-000.01,0000.12,-000.10,18.6,24.8,04.5,03.1,0674.4,31.1
2021-07-03T09:49:00Z,00000200,00000000,0000.08,-000.00,0000.19,-000.36,-000.13,-000.13,0000.12,-000.16,0000.01,18.6,24.8,04.5,03.1,0674.4,31.1
2021-07-03T09:50:00Z,00000200,00000000,0000.18,0000.19,-000.01,-000.22,-000.05,0000.11,0000.25,0000.32,0000.32,18.5,24.8,04.5,03.1,0674.4,31.0
2021-07-03T09:51:00Z,00000200,00000000,0000.52,0000.17,0000.34,-000.41,0000.04,0000.41,-000.19,0000.33,0000.10,18.5,24.7,04.6,03.1,0674.4,31.0
2021-07-03T09:52:00Z,00000200,00000000,0000.67,0000.12,0000.13,0000.16,0000.06,0000.31,0000.29,-000.24,-000.12,18.5,24.7,04.7,03.2,0674.4,31.0
2021-07-03T09:53:00Z,00000200,00000000,-000.06,0000.38,0000.14,0000.43,0000.21,-000.13,0000.13,0000.07,0000.22,18.5,24.7,04.8,03.3,0674.4,31.0
2021-07-03T09:54:00Z,00000200,00000000,0000.14,0000.04,0000.12,0000.29,-000.12,0000.39,0000.34,0000.47,0000.16,18.6,24.7,04.7,03.2,0674.4,31.1
2021-07-03T09:55:00Z,00000200,00000000,0000.32,0000.46,0000.17,-000.19,-000.14,0000.16,-000.19,0000.06,0000.12,18.6,24.8,04.7,03.2,0674.4,31.1
2021-07-03T09:56:00Z,00000200,00000000,0000.70,0000.24,0000.04,0000.26,0000.01,0000.07,-000.09,0000.22,-000.23,18.7,24.8,04.8,03.3,0674.4,31.1
2021-07-03T09:57:00Z,00000200,40000000,,,,,,,0000.00,-000.33,0000.28,18.8,24.9,04.8,03.3,0674.6,31.1
2021-07-03T09:58:00Z,00000200,60000000,,,,,,,-000.01,0000.08,-000.41,18.6,25.0,04.5,03.0,0673.4,31.1
2021-07-03T09:59:00Z,00000200,20000000,,,,,,,-000.04,-000.10,-000.21,18.5,25.1,04.5,03.0,0673.5,31.1
